Regional Weather Roundup
Issued by NWS Jackson, KY

Home | Current Version | Previous Version | Graphics & Text | Print | Product List | Glossary On
Versions: 1 2 3 4 5 6 7 8 9 10 11 12 13 14 15 16 17 18 19 20 21 22 23 24 25 26 27 28 29 30 31 32 33 34 35 36 37 38 39 40 41 42 43 44 45 46 47 48 49 50
000
ASUS43 KJKL 281410
RWRJKL

EAST KENTUCKY HOURLY WEATHER ROUNDUP
NATIONAL WEATHER SERVICE JACKSON KY
1000 AM EDT THU MAY 28 2015

NOTE: "FAIR" INDICATES FEW OR NO CLOUDS BELOW 12,000 FEET WITH
NO SIGNIFICANT WEATHER AND/OR OBSTRUCTIONS TO VISIBILITY.

* THESE REPORTS ARE NOT UNDER NWS QUALITY CONTROL AND MAY NOT
  REPORT WEATHER SUCH AS PRECIPITATION AND FOG.

KYZ079-080-083-085-087-088-110-112-115-119-120-281500
...EASTERN KENTUCKY...

CITY           SKY/WX    TMP DP  RH WIND       PRES   REMARKS
JACKSON        PTSUNNY   71  63  75 CALM      30.25S
LONDON         RAIN      67  62  84 CALM      30.26S
SOMERSET*      CLOUDY    68  66  94 CALM      30.26S
MONTICELLO*    CLOUDY    72  69  90 S5        30.28R
MIDDLESBORO*   PTSUNNY   68  67  95 CALM      30.26F
HARLAN APT*    MOSUNNY   70  64  83 CALM      30.27S
HAZARD APT*    SUNNY     73  63  68 CALM      30.26S
BLACK MTN*       N/A     66  59  77 CALM        N/A
PIKEVILLE APT* PTSUNNY   72  64  78 N3        30.26S
BIG SANDY*     MOSUNNY   72  65  77 CALM      30.26S
MOREHEAD APT*  CLOUDY    68  64  88 CALM      30.26S
$$

KYZ035-036-041-042-044-050-067-078-099-281500
...CENTRAL KENTUCKY...

CITY           SKY/WX    TMP DP  RH WIND       PRES   REMARKS
MT STERLING*   PTSUNNY   70  64  83 CALM      30.25S
FLEMING/MASON* CLOUDY    66  63  88 CALM      30.25S FOG
DANVILLE*      CLOUDY    68  64  88 S3        30.25R
RICHMOND*      CLOUDY    70  63  78 CALM      30.23S
LEXINGTON      CLOUDY    69  65  86 CALM      30.24R FOG
FRANKFORT      CLOUDY    66  63  90 CALM      30.22S
$$

KYZ091>093-OHZ055-061-077-WVZ005-015-034-035-042-281500
...SOUTHERN OHIO/WEST VIRGINIA...

CITY           SKY/WX    TMP DP  RH WIND       PRES   REMARKS
COVINGTON      CLOUDY    67  64  90 CALM      30.23R FOG
COLUMBUS       CLOUDY    71  63  75 E8        30.23R
DAYTON         CLOUDY    71  64  78 E7        30.24R
WILMINGTON     CLOUDY    69  63  81 VRB3      30.22R HAZE
HUNTINGTON     MOSUNNY   72  62  71 CALM      30.24S
CHARLESTON     PTSUNNY   73  60  63 CALM      30.24F
PINEVILLE*     CLOUDY    67  66  99 MISG      30.33F
BECKLEY        CLOUDY    68  57  68 N8        30.32R
BLUEFIELD      MOSUNNY   73  59  61 VRB3      30.33S
$$

VAZ002-007-008-TNZ017-027-036-066-071-281500
...SOUTHWEST VIRGINIA/EAST TENNESSEE...

CITY           SKY/WX    TMP DP  RH WIND       PRES   REMARKS
WISE*          PTSUNNY   73  57  56 CALM      30.33R
JONESVILLE*    MOSUNNY   72  64  78 CALM      30.28F
ABINGDON*      MOSUNNY   75  64  69 CALM      30.29F
BRISTOL        MOSUNNY   73  64  73 SE3       30.27S
KNOXVILLE      PTSUNNY   73  63  70 S3        30.24S
OAK RIDGE      CLOUDY    74  67  78 CALM      30.25F
CROSSVILLE     CLOUDY    67  62  84 E5        30.27F
NASHVILLE      CLOUDY    70  67  90 E3        30.23S
$$

...KEY TO REMARKS...
VSB - VISIBILITY IN MILES
WCI - WIND CHILL INDEX
HX  - HEAT INDEX

$$


USA.gov is the U.S. government's official web portal to all federal, state and local government web resources and services.